OBJECT AC, 61761

Orbit data source: Space-Track

You're viewing an uncataloged RSO

Recently launched and/or uncataloged RSOs may have evolving metadata. Metadata may include the following, but is not limited to: Owner, Manufacturer, Bus, Motor, and Mission.

OBJECT AC, 61761 is a satellite in SSO that was launched on Mon, 04 Nov 2024 UTC via a SOYUZ-2-1B launch vehicle from the Vostochny Cosmodrome (VOSTO). Unknown objects in Earth's orbit typically refer to objects detected orbiting the Earth but have not yet been identified or cataloged. These objects could be anything from previously untracked satellites, spent rocket stages, debris from satellite collisions, or even natural meteoroids temporarily captured by Earth's gravity.

Loading next visibility...
Identifier
61761, 2024-199AC
Orbit
SSO
Country
Flag of TBDTBD
Related business
None
Manufacturer
Unknown
Mission
Operational Commercial Technology
Bus & Motor
Unknown
Mass
Unknown
Launch date (UTC)
2024-11-04 (2 years ago)
Launch vehicle
SOYUZ-2-1B
Launch site
Vostochny Cosmodrome (VOSTO)
Object type
Unknown
Shape & HBR
Box, 0.2 m
Radar Cross Section
0.035 m², Medium (>0.1 m² and < 1m²)

Expand to show TLE details & history
Last TLE update: 10 hours ago

TLE from 10 hours ago
0 OBJECT AC
1 61761U 24199AC  26264.23822688  .00043803  00000-0  44254-3 0  9995
2 61761  97.2717 143.3416 0001561 260.2148  99.8935 15.65216911152596
Epoch: 2026-09-21T05:43Z
TLE epoch observation values (Epoch: 2026-09-21T05:43:02.802Z)
Latitude
-0.00009°
Longitude
57.45901°
Altitude
375.952 km
Speed
7.684 km/s
True Right ascension
09h 33m 21s
True Declination
0° 00' 00"
Sunlit
Object was in daylight at epoch
Visualization orbit readout
Latitude
Unknown
Longitude
Unknown
Altitude
Unknown
Speed
Unknown
Apparent Right ascension
Unknown
Apparent Declination
Unknown
Sunlit
N/A
Visualization observer readout
Local Sidereal Time
09:00:00
Azimuth
Unknown
Elevation
Unknown
Doppler factor
Unknown
Orbital elements
Apogee altitude
370.568 km
Perigee altitude
368.462 km
Semi-major axis
6,747.652 km
Eccentricity
0.00016
Inclination
97.2717°
RAAN
143.3416°
Arg. of periapsis
260.2148°
True anomaly
99.91112°
Mean anomaly
99.8935°
Eccentric anomaly
99.90231°
Mean motion
3.91574 °/min
Orbital period
91.94 mins
BSTAR
0.00044254
Loading maneuver chart data...
Computing Atmospheric mass density...
Loading historical data...
Loading historical data...
Loading historical data...
Loading historical data...
Loading historical data...
Loading historical data...
Loading historical data...

Documentation

Showing up to 5 results
|